Time,TemperatureF,DewpointF,PressureIn,WindDirection,WindDirectionDegrees,WindSpeedMPH,WindSpeedGustMPH,Humidity,HourlyPrecipIn,Conditions,Clouds,dailyrainin,SolarRadiationWatts/m^2,SoftwareType,DateUTC
2013-09-09 00:02:00,47.9,46.5,29.97,SE,141,0.0,0.0,95,0.00,SCT,,0.00,0.0,WeatherDisplay:10.37,2013-09-08 23:02:00,
2013-09-09 00:07:00,47.9,46.5,29.97,SE,141,0.0,0.0,95,0.00,SCT,,0.00,0.0,WeatherDisplay:10.37,2013-09-08 23:07:00,
2013-09-09 00:12:00,47.8,46.4,29.97,SE,141,0.0,0.0,95,0.00,SCT,,0.00,0.0,WeatherDisplay:10.37,2013-09-08 23:12:00,
2013-09-09 00:17:00,47.7,46.3,29.97,SE,142,0.0,0.0,95,0.00,SCT,,0.00,0.0,WeatherDisplay:10.37,2013-09-08 23:17:00,
2013-09-09 00:22:00,47.9,46.8,29.97,SE,143,0.0,0.0,96,0.00,SCT,,0.00,0.0,WeatherDisplay:10.37,2013-09-08 23:22:00,
2013-09-09 00:27:00,48.2,47.1,29.97,SE,142,0.0,0.0,96,0.00,SCT,,0.00,0.0,WeatherDisplay:10.37,2013-09-08 23:27:00,
2013-09-09 00:32:00,48.3,46.9,29.97,SE,142,0.0,0.0,95,0.00,SCT,,0.00,0.0,WeatherDisplay:10.37,2013-09-08 23:32:00,
2013-09-09 00:37:00,48.1,46.7,29.97,SE,141,0.0,0.0,95,0.00,SCT,,0.00,0.0,WeatherDisplay:10.37,2013-09-08 23:37:00,
2013-09-09 00:42:00,47.9,46.5,29.97,SE,141,0.0,0.0,95,0.00,SCT,,0.00,0.0,WeatherDisplay:10.37,2013-09-08 23:42:00,
2013-09-09 00:47:00,47.8,46.4,29.97,SE,141,0.0,0.0,95,0.00,SCT,,0.00,0.0,WeatherDisplay:10.37,2013-09-08 23:47:00,
2013-09-09 00:53:00,47.7,46.3,29.97,SE,141,0.0,0.0,95,0.00,SCT,,0.00,0.0,WeatherDisplay:10.37,2013-09-08 23:53:00,
2013-09-09 00:58:00,47.7,46.3,29.97,SE,142,0.0,0.0,95,0.00,SCT,,0.00,0.0,WeatherDisplay:10.37,2013-09-08 23:58:00,
2013-09-09 01:03:00,47.7,46.3,29.97,SE,141,0.0,0.0,95,0.00,SCT,,0.00,0.0,WeatherDisplay:10.37,2013-09-09 00:03:00,
2013-09-09 01:08:00,47.9,46.8,29.97,SE,141,0.0,0.0,96,0.00,SCT,,0.00,0.0,WeatherDisplay:10.37,2013-09-09 00:08:00,
2013-09-09 01:13:00,48.0,46.9,29.97,SE,141,0.0,0.0,96,0.00,SCT,,0.00,0.0,WeatherDisplay:10.37,2013-09-09 00:13:00,
2013-09-09 01:18:00,48.0,46.9,29.97,SE,141,0.0,0.0,96,0.00,SCT,,0.00,0.0,WeatherDisplay:10.37,2013-09-09 00:18:00,
2013-09-09 01:23:00,48.1,47.0,29.97,SE,141,0.0,0.0,96,0.00,SCT,,0.00,0.0,WeatherDisplay:10.37,2013-09-09 00:23:00,
2013-09-09 01:28:00,48.1,47.0,29.97,SE,141,0.0,0.0,96,0.00,SCT,,0.00,0.0,WeatherDisplay:10.37,2013-09-09 00:28:00,
2013-09-09 01:33:00,47.9,46.5,29.97,SE,141,0.0,0.0,95,0.00,SCT,,0.00,0.0,WeatherDisplay:10.37,2013-09-09 00:33:00,
2013-09-09 01:38:00,47.8,46.4,29.97,SE,141,0.0,0.0,95,0.00,SCT,,0.00,0.0,WeatherDisplay:10.37,2013-09-09 00:38:00,
2013-09-09 01:43:00,47.7,46.6,29.97,SE,141,0.0,0.0,96,0.00,SCT,,0.00,0.0,WeatherDisplay:10.37,2013-09-09 00:43:00,
2013-09-09 01:48:00,47.6,46.5,29.97,SE,141,0.0,0.0,96,0.00,SCT,,0.00,0.0,WeatherDisplay:10.37,2013-09-09 00:48:00,
2013-09-09 01:53:00,47.5,46.4,29.98,SE,141,0.0,0.0,96,0.00,SCT,,0.00,0.0,WeatherDisplay:10.37,2013-09-09 00:53:00,
2013-09-09 01:58:00,47.7,46.6,29.98,SE,141,0.0,0.0,96,0.00,SCT,,0.00,0.0,WeatherDisplay:10.37,2013-09-09 00:58:00,
2013-09-09 02:03:00,47.8,46.7,29.98,SE,141,0.0,0.0,96,0.00,SCT,,0.00,0.0,WeatherDisplay:10.37,2013-09-09 01:03:00,
2013-09-09 02:08:00,48.0,46.9,29.98,SE,141,0.0,0.0,96,0.00,SCT,,0.00,0.0,WeatherDisplay:10.37,2013-09-09 01:08:00,
2013-09-09 02:13:00,48.0,46.9,29.97,SE,141,0.0,0.0,96,0.00,SCT,,0.00,0.0,WeatherDisplay:10.37,2013-09-09 01:13:00,
2013-09-09 02:18:00,47.8,46.7,29.97,SE,141,0.0,0.0,96,0.00,SCT,,0.00,0.0,WeatherDisplay:10.37,2013-09-09 01:18:00,
2013-09-09 02:23:00,47.7,46.6,29.98,SE,141,0.0,0.0,96,0.00,SCT,,0.00,0.0,WeatherDisplay:10.37,2013-09-09 01:23:00,
2013-09-09 02:28:00,47.7,46.6,29.98,SE,141,0.0,0.0,96,0.00,SCT,,0.00,0.0,WeatherDisplay:10.37,2013-09-09 01:28:00,
2013-09-09 02:33:00,48.0,46.9,29.98,SE,141,0.0,0.0,96,0.00,SCT,,0.00,0.0,WeatherDisplay:10.37,2013-09-09 01:33:00,
2013-09-09 02:38:00,48.2,47.1,29.98,SE,141,0.0,0.0,96,0.00,SCT,,0.00,0.0,WeatherDisplay:10.37,2013-09-09 01:38:00,
2013-09-09 02:43:00,48.2,47.1,29.98,SE,141,0.0,0.0,96,0.00,SCT,,0.00,0.0,WeatherDisplay:10.37,2013-09-09 01:43:00,
2013-09-09 02:48:00,48.1,47.0,29.98,SE,141,0.0,0.0,96,0.00,SCT,,0.00,0.0,WeatherDisplay:10.37,2013-09-09 01:48:00,
2013-09-09 02:53:00,48.0,46.9,29.98,SE,141,0.0,0.0,96,0.00,SCT,,0.00,0.0,WeatherDisplay:10.37,2013-09-09 01:53:00,
2013-09-09 02:58:00,47.9,46.8,29.98,SE,141,0.0,0.0,96,0.00,SCT,,0.00,0.0,WeatherDisplay:10.37,2013-09-09 01:58:00,
2013-09-09 03:03:00,47.7,46.6,29.98,SE,141,0.0,0.0,96,0.00,SCT,,0.00,0.0,WeatherDisplay:10.37,2013-09-09 02:03:00,
2013-09-09 03:08:00,47.6,46.5,29.98,SE,141,0.0,0.0,96,0.00,SCT,,0.00,0.0,WeatherDisplay:10.37,2013-09-09 02:08:00,
2013-09-09 03:13:00,47.6,46.5,29.98,SE,141,0.0,0.0,96,0.00,SCT,,0.00,0.0,WeatherDisplay:10.37,2013-09-09 02:13:00,
2013-09-09 03:18:00,47.7,46.6,29.98,SE,141,0.0,0.0,96,0.00,SCT,,0.00,0.0,WeatherDisplay:10.37,2013-09-09 02:18:00,
2013-09-09 03:23:00,47.8,46.7,29.98,SE,141,0.0,0.0,96,0.00,SCT,,0.00,0.0,WeatherDisplay:10.37,2013-09-09 02:23:00,
2013-09-09 03:28:00,47.9,46.8,29.99,SE,141,0.0,0.0,96,0.00,SCT,,0.00,0.0,WeatherDisplay:10.37,2013-09-09 02:28:00,
2013-09-09 03:33:00,47.8,46.7,29.99,SSE,162,0.0,0.0,96,0.00,SCT,,0.00,0.0,WeatherDisplay:10.37,2013-09-09 02:33:00,
2013-09-09 03:38:00,47.7,46.6,29.99,SSE,161,0.0,0.0,96,0.00,SCT,,0.00,0.0,WeatherDisplay:10.37,2013-09-09 02:38:00,
2013-09-09 03:43:00,47.9,46.8,29.99,SSE,162,0.0,0.0,96,0.00,SCT,,0.00,0.0,WeatherDisplay:10.37,2013-09-09 02:43:00,
2013-09-09 03:48:00,48.0,46.9,29.99,WSW,248,0.0,0.0,96,0.00,SCT,,0.00,0.0,WeatherDisplay:10.37,2013-09-09 02:48:00,
2013-09-09 03:53:00,47.9,46.8,29.99,WSW,248,0.0,0.0,96,0.00,SCT,,0.00,0.0,WeatherDisplay:10.37,2013-09-09 02:53:00,
2013-09-09 03:58:00,47.5,46.4,29.99,WSW,248,0.0,0.0,96,0.00,SCT,,0.00,0.0,WeatherDisplay:10.37,2013-09-09 02:58:00,
2013-09-09 04:03:00,47.2,46.1,29.99,WSW,247,0.0,0.0,96,0.00,SCT,,0.00,0.0,WeatherDisplay:10.37,2013-09-09 03:03:00,
2013-09-09 04:08:00,47.1,46.0,29.99,WSW,247,0.0,0.0,96,0.00,SCT,,0.00,0.0,WeatherDisplay:10.37,2013-09-09 03:08:00,
2013-09-09 04:13:00,46.7,45.6,29.99,WSW,248,0.0,0.0,96,0.00,SCT,,0.00,0.0,WeatherDisplay:10.37,2013-09-09 03:13:00,
2013-09-09 04:18:00,46.4,45.3,29.99,WSW,248,0.0,0.0,96,0.00,SCT,,0.00,0.0,WeatherDisplay:10.37,2013-09-09 03:18:00,
2013-09-09 04:23:00,46.3,45.2,29.99,WSW,248,0.0,0.0,96,0.00,SCT,,0.00,0.0,WeatherDisplay:10.37,2013-09-09 03:23:00,
2013-09-09 04:28:00,46.2,45.1,29.99,WSW,247,0.0,0.0,96,0.00,SCT,,0.00,0.0,WeatherDisplay:10.37,2013-09-09 03:28:00,
2013-09-09 04:33:00,46.2,45.1,29.99,WSW,248,0.0,0.0,96,0.00,SCT,,0.00,0.0,WeatherDisplay:10.37,2013-09-09 03:33:00,
2013-09-09 04:38:00,46.2,45.1,29.99,WSW,248,0.0,0.0,96,0.00,SCT,,0.00,0.0,WeatherDisplay:10.37,2013-09-09 03:38:00,
2013-09-09 04:43:00,46.1,45.0,30.00,WSW,248,0.0,0.0,96,0.00,SCT,,0.00,0.0,WeatherDisplay:10.37,2013-09-09 03:43:00,
2013-09-09 04:48:00,46.2,45.1,30.00,WSW,248,0.0,0.0,96,0.00,SCT,,0.00,0.0,WeatherDisplay:10.37,2013-09-09 03:48:00,
2013-09-09 04:53:00,46.3,45.2,30.00,WSW,248,0.0,0.0,96,0.00,SCT,,0.00,0.0,WeatherDisplay:10.37,2013-09-09 03:53:00,
2013-09-09 04:58:00,46.3,45.2,30.00,WSW,248,0.0,0.0,96,0.00,SCT,,0.00,0.0,WeatherDisplay:10.37,2013-09-09 03:58:00,
2013-09-09 05:01:00,46.4,45.3,30.00,WSW,248,0.0,0.0,96,0.00,SCT,,0.00,0.0,WeatherDisplay:10.37,2013-09-09 04:01:00,
2013-09-09 05:02:00,46.4,45.3,30.00,WSW,247,0.0,0.0,96,0.00,SCT,,0.00,0.0,WeatherDisplay:10.37,2013-09-09 04:02:00,
2013-09-09 05:07:00,46.5,45.4,30.00,WSW,248,0.0,0.0,96,0.00,SCT,,0.00,0.0,WeatherDisplay:10.37,2013-09-09 04:07:00,
2013-09-09 05:12:00,46.5,45.4,30.00,WSW,248,0.0,0.0,96,0.00,SCT,,0.00,0.0,WeatherDisplay:10.37,2013-09-09 04:12:00,
2013-09-09 05:17:00,46.6,45.5,30.00,WSW,248,0.0,0.0,96,0.00,SCT,,0.00,0.0,WeatherDisplay:10.37,2013-09-09 04:17:00,
2013-09-09 05:22:00,46.8,46.0,30.00,WSW,248,0.0,0.0,97,0.00,SCT,,0.00,0.0,WeatherDisplay:10.37,2013-09-09 04:22:00,
2013-09-09 05:27:00,47.0,46.2,30.00,WSW,248,0.0,0.0,97,0.00,SCT,,0.00,0.0,WeatherDisplay:10.37,2013-09-09 04:27:00,
2013-09-09 05:32:00,47.0,45.9,30.00,WSW,248,0.0,0.0,96,0.00,SCT,,0.00,0.0,WeatherDisplay:10.37,2013-09-09 04:32:00,
2013-09-09 05:37:00,47.0,45.9,30.00,WSW,248,0.0,0.0,96,0.00,SCT,,0.00,0.0,WeatherDisplay:10.37,2013-09-09 04:37:00,
2013-09-09 05:42:00,46.9,45.8,30.00,WSW,246,0.0,0.0,96,0.00,SCT,,0.00,0.0,WeatherDisplay:10.37,2013-09-09 04:42:00,
2013-09-09 05:47:00,46.8,45.7,30.01,WSW,246,0.0,0.0,96,0.00,SCT,,0.00,0.0,WeatherDisplay:10.37,2013-09-09 04:47:00,
2013-09-09 05:52:00,46.9,45.8,30.01,WSW,246,0.0,0.0,96,0.00,SCT,,0.00,0.0,WeatherDisplay:10.37,2013-09-09 04:52:00,
2013-09-09 05:57:00,46.9,46.1,30.01,WSW,246,0.0,0.0,97,0.00,SCT,,0.00,0.0,WeatherDisplay:10.37,2013-09-09 04:57:00,
2013-09-09 06:02:00,46.9,45.8,30.01,ENE,57,0.0,0.0,96,0.00,SCT,,0.00,0.0,WeatherDisplay:10.37,2013-09-09 05:02:00,
2013-09-09 06:07:00,46.9,45.8,30.01,ENE,57,0.0,0.0,96,0.00,SCT,,0.00,0.0,WeatherDisplay:10.37,2013-09-09 05:07:00,
2013-09-09 06:12:00,46.9,45.8,30.01,ENE,57,0.0,0.0,96,0.00,SCT,,0.00,0.0,WeatherDisplay:10.37,2013-09-09 05:12:00,
2013-09-09 06:17:00,47.0,46.2,30.01,NE,56,0.0,0.0,97,0.00,SCT,,0.00,0.0,WeatherDisplay:10.37,2013-09-09 05:17:00,
2013-09-09 06:22:00,47.1,46.3,30.02,ENE,57,0.0,0.0,97,0.00,SCT,,0.00,0.0,WeatherDisplay:10.37,2013-09-09 05:22:00,
2013-09-09 06:27:00,47.2,46.4,30.02,SW,232,0.0,0.0,97,0.00,SCT,,0.00,0.0,WeatherDisplay:10.37,2013-09-09 05:27:00,
2013-09-09 06:32:00,47.4,46.6,30.02,WSW,250,2.3,2.3,97,0.00,SCT,,0.00,0.0,WeatherDisplay:10.37,2013-09-09 05:32:00,
2013-09-09 06:37:00,47.5,46.7,30.02,WSW,242,1.2,0.0,97,0.00,SCT,,0.00,0.0,WeatherDisplay:10.37,2013-09-09 05:37:00,
2013-09-09 06:42:00,47.6,46.8,30.02,NE,35,2.3,2.3,97,0.00,SCT,,0.00,0.0,WeatherDisplay:10.37,2013-09-09 05:42:00,
2013-09-09 06:47:00,47.8,47.0,30.02,North,356,1.2,0.0,97,0.00,SCT,,0.00,0.0,WeatherDisplay:10.37,2013-09-09 05:47:00,
2013-09-09 06:52:00,47.8,47.0,30.02,NNE,23,2.0,2.0,97,0.00,SCT,,0.00,0.0,WeatherDisplay:10.37,2013-09-09 05:52:00,
2013-09-09 06:57:00,47.6,46.5,30.03,NNE,24,1.2,1.2,96,0.00,SCT,,0.00,0.0,WeatherDisplay:10.37,2013-09-09 05:57:00,
2013-09-09 07:02:00,47.5,46.4,30.03,NNE,24,1.2,1.2,96,0.00,BKN,,0.00,0.0,WeatherDisplay:10.37,2013-09-09 06:02:00,
2013-09-09 07:07:00,47.4,46.6,30.03,NNE,24,1.2,1.2,97,0.00,BKN,,0.00,0.0,WeatherDisplay:10.37,2013-09-09 06:07:00,
2013-09-09 07:12:00,47.5,46.7,30.03,NNE,25,0.0,0.0,97,0.00,BKN,,0.00,0.0,WeatherDisplay:10.37,2013-09-09 06:12:00,
2013-09-09 07:17:00,47.6,46.8,30.04,NNE,24,0.0,0.0,97,0.00,BKN,,0.00,0.0,WeatherDisplay:10.37,2013-09-09 06:17:00,
2013-09-09 07:22:00,47.6,46.8,30.04,NNE,24,0.0,0.0,97,0.00,BKN,,0.00,0.0,WeatherDisplay:10.37,2013-09-09 06:22:00,
2013-09-09 07:27:00,47.8,47.0,30.04,NNE,24,0.0,0.0,97,0.00,BKN,,0.00,0.0,WeatherDisplay:10.37,2013-09-09 06:27:00,
2013-09-09 07:32:00,48.0,47.2,30.04,NNE,25,0.0,0.0,97,0.00,BKN,,0.00,0.0,WeatherDisplay:10.37,2013-09-09 06:32:00,
2013-09-09 07:37:00,48.2,47.4,30.05,NNE,25,0.0,0.0,97,0.00,BKN,,0.00,0.0,WeatherDisplay:10.37,2013-09-09 06:37:00,
2013-09-09 07:42:00,48.4,47.6,30.05,NNE,25,0.0,0.0,97,0.00,BKN,,0.00,0.0,WeatherDisplay:10.37,2013-09-09 06:42:00,
2013-09-09 07:47:00,48.5,47.7,30.05,NNE,25,0.0,0.0,97,0.00,BKN,,0.00,0.0,WeatherDisplay:10.37,2013-09-09 06:47:00,
2013-09-09 07:52:00,48.7,47.9,30.05,NNE,25,0.0,0.0,97,0.00,BKN,,0.00,0.0,WeatherDisplay:10.37,2013-09-09 06:52:00,
2013-09-09 07:57:00,48.9,48.1,30.05,NNE,24,0.0,0.0,97,0.00,BKN,,0.00,0.0,WeatherDisplay:10.37,2013-09-09 06:57:00,
2013-09-09 08:02:00,49.1,48.3,30.05,NNE,24,0.0,0.0,97,0.00,BKN,,0.00,0.0,WeatherDisplay:10.37,2013-09-09 07:02:00,
2013-09-09 08:07:00,49.3,48.5,30.05,NNE,25,0.0,0.0,97,0.00,BKN,,0.00,0.0,WeatherDisplay:10.37,2013-09-09 07:07:00,
2013-09-09 08:12:00,49.5,48.7,30.05,NNE,24,0.0,0.0,97,0.00,BKN,,0.00,0.0,WeatherDisplay:10.37,2013-09-09 07:12:00,
2013-09-09 08:17:00,49.6,48.8,30.06,NNE,24,0.0,0.0,97,0.00,BKN,,0.00,0.0,WeatherDisplay:10.37,2013-09-09 07:17:00,
2013-09-09 08:22:00,49.8,49.0,30.06,NNE,24,0.0,0.0,97,0.00,BKN,,0.00,0.0,WeatherDisplay:10.37,2013-09-09 07:22:00,
2013-09-09 08:27:00,50.0,49.2,30.06,NNE,24,0.0,0.0,97,0.00,BKN,,0.00,0.0,WeatherDisplay:10.37,2013-09-09 07:27:00,
2013-09-09 08:32:00,50.1,49.3,30.06,NNE,25,0.0,0.0,97,0.00,BKN,,0.00,0.0,WeatherDisplay:10.37,2013-09-09 07:32:00,
2013-09-09 08:37:00,50.2,49.4,30.07,NNE,25,0.0,0.0,97,0.00,BKN,,0.00,0.0,WeatherDisplay:10.37,2013-09-09 07:37:00,
2013-09-09 08:42:00,50.4,49.6,30.07,NNE,24,0.0,0.0,97,0.00,BKN,,0.00,0.0,WeatherDisplay:10.37,2013-09-09 07:42:00,
2013-09-09 08:47:00,50.7,49.9,30.07,NNE,25,0.0,0.0,97,0.00,BKN,,0.00,0.0,WeatherDisplay:10.37,2013-09-09 07:47:00,
2013-09-09 08:52:00,50.8,50.0,30.07,NNE,25,1.2,0.0,97,0.00,BKN,,0.00,0.0,WeatherDisplay:10.37,2013-09-09 07:52:00,
2013-09-09 08:57:00,51.0,50.2,30.07,NNE,24,0.0,0.0,97,0.00,BKN,,0.00,0.0,WeatherDisplay:10.37,2013-09-09 07:57:00,
2013-09-09 09:02:00,51.3,50.5,30.08,NNE,24,0.0,0.0,97,0.00,BKN,,0.00,0.0,WeatherDisplay:10.37,2013-09-09 08:02:00,
2013-09-09 09:07:00,51.6,50.8,30.08,NNE,24,0.0,0.0,97,0.00,BKN,,0.00,0.0,WeatherDisplay:10.37,2013-09-09 08:07:00,
2013-09-09 09:12:00,51.8,51.0,30.08,NNE,25,0.0,0.0,97,0.00,BKN,,0.00,0.0,WeatherDisplay:10.37,2013-09-09 08:12:00,
2013-09-09 09:17:00,52.1,51.3,30.08,NNE,25,0.0,0.0,97,0.00,BKN,,0.00,0.0,WeatherDisplay:10.37,2013-09-09 08:17:00,
2013-09-09 09:22:00,52.1,51.0,30.08,East,100,1.2,0.0,96,0.00,BKN,,0.00,0.0,WeatherDisplay:10.37,2013-09-09 08:22:00,
2013-09-09 09:27:00,52.3,51.5,30.08,East,101,1.2,1.2,97,0.00,BKN,,0.00,0.0,WeatherDisplay:10.37,2013-09-09 08:27:00,
2013-09-09 09:32:00,52.4,51.6,30.09,NNE,20,1.2,1.2,97,0.00,BKN,,0.00,0.0,WeatherDisplay:10.37,2013-09-09 08:32:00,
2013-09-09 09:37:00,52.8,52.0,30.09,North,353,2.3,2.3,97,0.00,BKN,,0.00,0.0,WeatherDisplay:10.37,2013-09-09 08:37:00,
2013-09-09 09:42:00,53.0,51.9,30.09,North,351,2.3,2.3,96,0.00,BKN,,0.00,0.0,WeatherDisplay:10.37,2013-09-09 08:42:00,
2013-09-09 09:47:00,53.2,52.1,30.09,NW,311,1.2,1.2,96,0.00,BKN,,0.00,0.0,WeatherDisplay:10.37,2013-09-09 08:47:00,
2013-09-09 09:52:00,53.4,52.3,30.09,NNW,347,1.2,1.2,96,0.00,BKN,,0.00,0.0,WeatherDisplay:10.37,2013-09-09 08:52:00,
2013-09-09 09:57:00,53.7,52.6,30.09,North,350,1.0,1.0,96,0.00,BKN,,0.00,0.0,WeatherDisplay:10.37,2013-09-09 08:57:00,
2013-09-09 10:02:00,53.9,52.8,30.09,NNW,347,3.5,3.5,96,0.00,BKN,,0.00,0.0,WeatherDisplay:10.37,2013-09-09 09:02:00,
2013-09-09 10:07:00,54.1,53.0,30.09,NNE,18,2.3,2.3,96,0.00,BKN,,0.00,0.0,WeatherDisplay:10.37,2013-09-09 09:07:00,
2013-09-09 10:12:00,54.4,53.3,30.10,NNE,30,3.5,3.5,96,0.00,BKN,,0.00,0.0,WeatherDisplay:10.37,2013-09-09 09:12:00,
2013-09-09 10:17:00,54.5,53.4,30.10,North,8,4.6,4.6,96,0.00,BKN,,0.00,0.0,WeatherDisplay:10.37,2013-09-09 09:17:00,
2013-09-09 10:22:00,54.6,53.2,30.10,NNW,344,3.5,3.5,95,0.00,BKN,,0.00,0.0,WeatherDisplay:10.37,2013-09-09 09:22:00,
2013-09-09 10:27:00,54.6,53.2,30.10,NNE,27,4.0,4.0,95,0.00,BKN,,0.00,0.0,WeatherDisplay:10.37,2013-09-09 09:27:00,
2013-09-09 10:32:00,54.7,53.3,30.10,NNW,342,3.5,3.5,95,0.00,BKN,,0.00,0.0,WeatherDisplay:10.37,2013-09-09 09:32:00,
2013-09-09 10:37:00,54.7,53.3,30.10,North,360,4.6,4.6,95,0.00,BKN,,0.00,0.0,WeatherDisplay:10.37,2013-09-09 09:37:00,
2013-09-09 10:42:00,54.7,53.0,30.10,NNW,334,3.5,3.5,94,0.00,BKN,,0.00,0.0,WeatherDisplay:10.37,2013-09-09 09:42:00,
2013-09-09 10:47:00,54.9,53.2,30.11,NW,314,5.8,5.8,94,0.00,BKN,,0.00,0.0,WeatherDisplay:10.37,2013-09-09 09:47:00,
2013-09-09 10:52:00,54.9,53.2,30.11,NNW,345,6.0,6.0,94,0.00,BKN,,0.00,0.0,WeatherDisplay:10.37,2013-09-09 09:52:00,
2013-09-09 10:57:00,55.1,53.4,30.11,NW,313,6.9,6.9,94,0.00,BKN,,0.00,0.0,WeatherDisplay:10.37,2013-09-09 09:57:00,
2013-09-09 11:02:00,55.1,53.1,30.11,NW,313,4.6,4.6,93,0.00,-DZ,,0.00,0.0,WeatherDisplay:10.37,2013-09-09 10:02:00,
2013-09-09 11:07:00,55.4,53.4,30.11,NW,311,4.6,4.6,93,0.00,-DZ,,0.00,0.0,WeatherDisplay:10.37,2013-09-09 10:07:00,
2013-09-09 11:12:00,55.6,53.6,30.11,NNW,328,6.0,6.0,93,0.00,-DZ,,0.00,0.0,WeatherDisplay:10.37,2013-09-09 10:12:00,
2013-09-09 11:17:00,55.6,53.3,30.11,WNW,296,3.5,3.5,92,0.00,-DZ,,0.00,0.0,WeatherDisplay:10.37,2013-09-09 10:17:00,
2013-09-09 11:22:00,55.8,53.5,30.11,NW,318,5.8,5.8,92,0.00,-DZ,,0.00,0.0,WeatherDisplay:10.37,2013-09-09 10:22:00,
2013-09-09 11:27:00,56.1,53.5,30.12,NNW,333,6.9,6.9,91,0.00,-DZ,,0.00,0.0,WeatherDisplay:10.37,2013-09-09 10:27:00,
2013-09-09 11:32:00,55.9,53.3,30.12,NW,319,6.9,6.9,91,0.00,-DZ,,0.00,0.0,WeatherDisplay:10.37,2013-09-09 10:32:00,
2013-09-09 11:37:00,55.9,53.3,30.12,NW,318,4.6,4.6,91,0.00,-DZ,,0.00,0.0,WeatherDisplay:10.37,2013-09-09 10:37:00,
2013-09-09 11:42:00,56.0,53.4,30.12,NW,308,8.1,8.1,91,0.00,-DZ,,0.00,0.0,WeatherDisplay:10.37,2013-09-09 10:42:00,
2013-09-09 11:47:00,56.1,53.5,30.12,WNW,294,9.0,9.0,91,0.00,-DZ,,0.00,0.0,WeatherDisplay:10.37,2013-09-09 10:47:00,
2013-09-09 11:52:00,55.9,53.6,30.12,WNW,291,5.8,5.8,92,0.00,-DZ,,0.00,0.0,WeatherDisplay:10.37,2013-09-09 10:52:00,
2013-09-09 11:57:00,55.8,53.8,30.12,NW,326,3.5,3.5,93,0.00,-DZ,,0.00,0.0,WeatherDisplay:10.37,2013-09-09 10:57:00,
2013-09-09 12:02:00,55.9,53.9,30.12,NW,319,6.0,6.0,93,0.00,-DZ,,0.00,0.0,WeatherDisplay:10.37,2013-09-09 11:02:00,
2013-09-09 12:07:00,55.8,54.1,30.12,NW,321,5.0,5.0,94,0.00,-DZ,,0.00,0.0,WeatherDisplay:10.37,2013-09-09 11:07:00,
2013-09-09 12:12:00,55.5,53.8,30.12,NNW,334,6.0,6.0,94,0.00,-DZ,,0.00,0.0,WeatherDisplay:10.37,2013-09-09 11:12:00,
2013-09-09 12:17:00,55.6,54.2,30.12,NW,314,5.8,5.8,95,0.01,-DZ,,0.01,0.0,WeatherDisplay:10.37,2013-09-09 11:17:00,
2013-09-09 12:23:00,56.0,54.6,30.12,NNW,332,4.6,5.0,95,0.01,-DZ,,0.01,0.0,WeatherDisplay:10.37,2013-09-09 11:23:00,
2013-09-09 12:28:00,56.2,54.5,30.12,NW,312,5.8,5.8,94,0.01,-DZ,,0.01,0.0,WeatherDisplay:10.37,2013-09-09 11:28:00,
2013-09-09 12:33:00,56.3,54.9,30.12,West,278,6.0,6.0,95,0.01,-DZ,,0.01,0.0,WeatherDisplay:10.37,2013-09-09 11:33:00,
2013-09-09 12:38:00,56.6,54.9,30.13,NW,312,8.0,8.0,94,0.01,-DZ,,0.01,0.0,WeatherDisplay:10.37,2013-09-09 11:38:00,
2013-09-09 12:43:00,56.6,54.9,30.12,NNW,332,5.8,5.8,94,0.01,-DZ,,0.01,0.0,WeatherDisplay:10.37,2013-09-09 11:43:00,
2013-09-09 12:48:00,56.7,54.7,30.13,NNW,333,6.9,6.9,93,0.01,-DZ,,0.01,0.0,WeatherDisplay:10.37,2013-09-09 11:48:00,
2013-09-09 12:53:00,56.8,54.8,30.13,NNW,335,3.5,4.4,93,0.01,-DZ,,0.01,0.0,WeatherDisplay:10.37,2013-09-09 11:53:00,
2013-09-09 12:58:00,56.8,54.8,30.13,NW,323,4.6,4.6,93,0.01,-DZ,,0.01,0.0,WeatherDisplay:10.37,2013-09-09 11:58:00,
2013-09-09 13:03:00,56.9,54.9,30.13,NW,319,5.0,5.0,93,0.01,BKN,,0.01,0.0,WeatherDisplay:10.37,2013-09-09 12:03:00,
2013-09-09 13:08:00,57.1,55.1,30.13,WNW,294,6.0,6.0,93,0.01,BKN,,0.01,0.0,WeatherDisplay:10.37,2013-09-09 12:08:00,
2013-09-09 13:13:00,57.5,55.2,30.13,WNW,303,4.0,4.0,92,0.01,BKN,,0.01,0.0,WeatherDisplay:10.37,2013-09-09 12:13:00,
2013-09-09 13:18:00,57.6,54.7,30.13,WNW,284,6.9,6.9,90,0.00,BKN,,0.01,0.0,WeatherDisplay:10.37,2013-09-09 12:18:00,
2013-09-09 13:23:00,57.9,54.4,30.13,WNW,288,8.1,8.1,88,0.00,BKN,,0.01,0.0,WeatherDisplay:10.37,2013-09-09 12:23:00,
2013-09-09 13:28:00,58.6,55.7,30.13,NW,325,4.6,4.6,90,0.00,BKN,,0.01,0.0,WeatherDisplay:10.37,2013-09-09 12:28:00,
2013-09-09 13:33:00,59.1,55.2,30.13,WNW,293,6.9,6.9,87,0.00,BKN,,0.01,0.0,WeatherDisplay:10.37,2013-09-09 12:33:00,
2013-09-09 13:38:00,59.3,55.1,30.13,WNW,298,8.1,8.1,86,0.00,BKN,,0.01,0.0,WeatherDisplay:10.37,2013-09-09 12:38:00,
2013-09-09 13:43:00,59.1,54.9,30.13,WNW,291,6.9,6.9,86,0.00,BKN,,0.01,0.0,WeatherDisplay:10.37,2013-09-09 12:43:00,
2013-09-09 13:48:00,59.0,55.1,30.14,NW,323,7.0,7.0,87,0.00,BKN,,0.01,0.0,WeatherDisplay:10.37,2013-09-09 12:48:00,
2013-09-09 13:53:00,59.0,54.8,30.14,North,5,8.1,8.1,86,0.00,BKN,,0.01,0.0,WeatherDisplay:10.37,2013-09-09 12:53:00,
2013-09-09 13:58:00,58.7,54.8,30.14,NW,311,10.4,10.4,87,0.00,BKN,,0.01,0.0,WeatherDisplay:10.37,2013-09-09 12:58:00,
2013-09-09 14:03:00,58.2,54.7,30.14,NW,311,8.1,8.1,88,0.00,BKN,,0.01,0.0,WeatherDisplay:10.37,2013-09-09 13:03:00,
2013-09-09 14:08:00,58.3,55.1,30.14,NW,319,8.1,8.1,89,0.00,BKN,,0.01,0.0,WeatherDisplay:10.37,2013-09-09 13:08:00,
2013-09-09 14:13:00,59.0,55.1,30.14,NW,315,11.5,11.5,87,0.00,BKN,,0.01,0.0,WeatherDisplay:10.37,2013-09-09 13:13:00,
2013-09-09 14:18:00,59.7,55.5,30.15,NW,322,10.4,10.4,86,0.00,BKN,,0.01,0.0,WeatherDisplay:10.37,2013-09-09 13:18:00,
2013-09-09 14:23:00,59.7,54.9,30.15,NW,316,16.1,16.1,84,0.00,BKN,,0.01,0.0,WeatherDisplay:10.37,2013-09-09 13:23:00,
2013-09-09 14:28:00,60.0,55.2,30.15,NNW,340,12.7,12.7,84,0.00,BKN,,0.01,0.0,WeatherDisplay:10.37,2013-09-09 13:28:00,
2013-09-09 14:33:00,59.9,55.1,30.15,NW,318,8.1,8.1,84,0.00,BKN,,0.01,0.0,WeatherDisplay:10.37,2013-09-09 13:33:00,
2013-09-09 14:38:00,60.4,55.5,30.15,NW,314,11.5,11.5,84,0.00,BKN,,0.01,0.0,WeatherDisplay:10.37,2013-09-09 13:38:00,
2013-09-09 14:43:00,60.7,55.2,30.15,NNW,342,8.1,8.1,82,0.00,BKN,,0.01,0.0,WeatherDisplay:10.37,2013-09-09 13:43:00,
2013-09-09 14:48:00,60.6,54.7,30.15,NNW,345,11.5,11.5,81,0.00,BKN,,0.01,0.0,WeatherDisplay:10.37,2013-09-09 13:48:00,
2013-09-09 14:53:00,61.3,55.4,30.15,NNW,342,10.0,10.0,81,0.00,BKN,,0.01,0.0,WeatherDisplay:10.37,2013-09-09 13:53:00,
2013-09-09 14:58:00,61.2,54.3,30.15,WNW,294,12.7,12.7,78,0.00,BKN,,0.01,0.0,WeatherDisplay:10.37,2013-09-09 13:58:00,
2013-09-09 15:03:00,60.6,53.7,30.16,NW,307,11.5,11.5,78,0.00,BKN,,0.01,0.0,WeatherDisplay:10.37,2013-09-09 14:03:00,
2013-09-09 15:08:00,60.7,53.8,30.16,WNW,300,11.5,11.5,78,0.00,BKN,,0.01,0.0,WeatherDisplay:10.37,2013-09-09 14:08:00,
2013-09-09 15:13:00,60.3,53.8,30.16,NW,318,10.4,10.4,79,0.00,BKN,,0.01,0.0,WeatherDisplay:10.37,2013-09-09 14:13:00,
2013-09-09 15:18:00,60.3,53.8,30.16,NNW,347,10.4,10.4,79,0.00,BKN,,0.01,0.0,WeatherDisplay:10.37,2013-09-09 14:18:00,
2013-09-09 15:23:00,60.1,53.6,30.16,NW,311,10.4,10.4,79,0.00,BKN,,0.01,0.0,WeatherDisplay:10.37,2013-09-09 14:23:00,
2013-09-09 15:28:00,60.2,53.7,30.16,NNW,332,11.5,11.5,79,0.00,BKN,,0.01,0.0,WeatherDisplay:10.37,2013-09-09 14:28:00,
2013-09-09 15:33:00,59.9,53.4,30.17,WNW,301,12.7,12.7,79,0.00,BKN,,0.01,0.0,WeatherDisplay:10.37,2013-09-09 14:33:00,
2013-09-09 15:38:00,59.7,52.8,30.17,NNW,334,9.0,9.0,78,0.00,BKN,,0.01,0.0,WeatherDisplay:10.37,2013-09-09 14:38:00,
2013-09-09 15:43:00,59.7,53.2,30.17,NW,319,15.0,15.0,79,0.00,BKN,,0.01,0.0,WeatherDisplay:10.37,2013-09-09 14:43:00,
2013-09-09 15:48:00,59.8,52.9,30.17,NNW,346,12.7,12.7,78,0.00,BKN,,0.01,0.0,WeatherDisplay:10.37,2013-09-09 14:48:00,
2013-09-09 15:53:00,60.0,53.8,30.17,NNW,332,10.4,10.4,80,0.00,BKN,,0.01,0.0,WeatherDisplay:10.37,2013-09-09 14:53:00,
2013-09-09 15:58:00,60.2,53.7,30.17,WNW,286,13.0,13.0,79,0.00,BKN,,0.01,0.0,WeatherDisplay:10.37,2013-09-09 14:58:00,
2013-09-09 16:03:00,60.1,53.6,30.17,NNW,333,10.4,10.4,79,0.00,BKN,,0.01,0.0,WeatherDisplay:10.37,2013-09-09 15:03:00,
2013-09-09 16:08:00,60.0,53.8,30.17,NW,307,11.5,11.5,80,0.00,BKN,,0.01,0.0,WeatherDisplay:10.37,2013-09-09 15:08:00,
2013-09-09 16:13:00,60.0,53.8,30.17,WNW,298,11.5,11.5,80,0.00,BKN,,0.01,0.0,WeatherDisplay:10.37,2013-09-09 15:13:00,
2013-09-09 16:18:00,60.6,54.0,30.17,North,4,11.0,11.0,79,0.00,BKN,,0.01,0.0,WeatherDisplay:10.37,2013-09-09 15:18:00,
2013-09-09 16:23:00,61.1,54.9,30.17,NNW,339,10.0,10.0,80,0.00,BKN,,0.01,0.0,WeatherDisplay:10.37,2013-09-09 15:23:00,
2013-09-09 16:28:00,60.9,54.0,30.17,NNW,340,11.5,11.5,78,0.00,BKN,,0.01,0.0,WeatherDisplay:10.37,2013-09-09 15:28:00,
2013-09-09 16:33:00,60.8,53.5,30.17,NW,316,11.5,11.5,77,0.00,BKN,,0.01,0.0,WeatherDisplay:10.37,2013-09-09 15:33:00,
2013-09-09 16:38:00,60.9,53.6,30.17,NW,315,12.7,12.7,77,0.00,BKN,,0.01,0.0,WeatherDisplay:10.37,2013-09-09 15:38:00,
2013-09-09 16:43:00,61.1,54.2,30.18,NNW,327,14.0,14.0,78,0.00,BKN,,0.01,0.0,WeatherDisplay:10.37,2013-09-09 15:43:00,
2013-09-09 16:48:00,60.8,53.5,30.18,NW,314,12.7,12.7,77,0.00,BKN,,0.01,0.0,WeatherDisplay:10.37,2013-09-09 15:48:00,
2013-09-09 16:53:00,60.4,53.5,30.18,NW,323,15.0,15.0,78,0.00,BKN,,0.01,0.0,WeatherDisplay:10.37,2013-09-09 15:53:00,
2013-09-09 16:58:00,60.3,53.8,30.18,NNW,345,11.5,11.5,79,0.00,BKN,,0.01,0.0,WeatherDisplay:10.37,2013-09-09 15:58:00,
2013-09-09 17:03:00,60.0,53.5,30.18,NW,313,11.5,11.5,79,0.00,BKN,,0.01,0.0,WeatherDisplay:10.37,2013-09-09 16:03:00,
2013-09-09 17:08:00,59.7,53.5,30.18,NNW,328,10.4,10.4,80,0.00,BKN,,0.01,0.0,WeatherDisplay:10.37,2013-09-09 16:08:00,
2013-09-09 17:13:00,60.2,53.7,30.19,NNW,328,13.8,13.8,79,0.00,BKN,,0.01,0.0,WeatherDisplay:10.37,2013-09-09 16:13:00,
2013-09-09 17:18:00,59.8,53.6,30.19,NNW,347,10.0,10.6,80,0.00,BKN,,0.01,0.0,WeatherDisplay:10.37,2013-09-09 16:18:00,
2013-09-09 17:23:00,59.0,53.5,30.19,NNE,23,11.5,11.5,82,0.00,BKN,,0.01,0.0,WeatherDisplay:10.37,2013-09-09 16:23:00,
2013-09-09 17:28:00,58.6,53.5,30.19,NW,321,11.5,11.5,83,0.00,BKN,,0.01,0.0,WeatherDisplay:10.37,2013-09-09 16:28:00,
2013-09-09 17:33:00,58.8,53.6,30.19,North,356,10.4,10.4,83,0.00,BKN,,0.01,0.0,WeatherDisplay:10.37,2013-09-09 16:33:00,
2013-09-09 17:38:00,58.7,53.5,30.19,WNW,303,9.0,9.0,83,0.00,BKN,,0.01,0.0,WeatherDisplay:10.37,2013-09-09 16:38:00,
2013-09-09 17:43:00,58.8,53.6,30.20,North,11,11.5,11.5,83,0.00,BKN,,0.01,0.0,WeatherDisplay:10.37,2013-09-09 16:43:00,
2013-09-09 17:48:00,59.2,54.0,30.20,NNW,330,12.7,12.7,83,0.00,BKN,,0.01,0.0,WeatherDisplay:10.37,2013-09-09 16:48:00,
2013-09-09 17:53:00,58.1,53.0,30.20,NNW,345,21.9,21.9,83,0.00,BKN,,0.01,0.0,WeatherDisplay:10.37,2013-09-09 16:53:00,
2013-09-09 17:58:00,56.6,52.8,30.20,North,360,12.7,12.7,87,0.00,BKN,,0.01,0.0,WeatherDisplay:10.37,2013-09-09 16:58:00,
2013-09-09 18:03:00,55.9,52.7,30.21,NNW,327,13.8,13.8,89,0.00,BKN,,0.01,0.0,WeatherDisplay:10.37,2013-09-09 17:03:00,
2013-09-09 18:08:00,55.6,52.7,30.21,NW,321,11.5,11.5,90,0.00,BKN,,0.01,0.0,WeatherDisplay:10.37,2013-09-09 17:08:00,
2013-09-09 18:13:00,55.6,52.7,30.21,NNW,341,11.5,11.5,90,0.00,BKN,,0.01,0.0,WeatherDisplay:10.37,2013-09-09 17:13:00,
2013-09-09 18:18:00,55.5,52.6,30.21,NNW,340,12.7,12.7,90,0.00,BKN,,0.01,0.0,WeatherDisplay:10.37,2013-09-09 17:18:00,
2013-09-09 18:23:00,55.4,52.5,30.21,NNW,337,10.4,10.4,90,0.00,BKN,,0.01,0.0,WeatherDisplay:10.37,2013-09-09 17:23:00,
2013-09-09 18:28:00,55.3,52.4,30.21,NW,319,9.2,9.2,90,0.00,BKN,,0.01,0.0,WeatherDisplay:10.37,2013-09-09 17:28:00,
2013-09-09 18:33:00,55.2,52.3,30.22,North,9,11.5,11.5,90,0.00,BKN,,0.01,0.0,WeatherDisplay:10.37,2013-09-09 17:33:00,
2013-09-09 18:38:00,55.2,52.0,30.22,NW,326,9.2,9.2,89,0.00,BKN,,0.01,0.0,WeatherDisplay:10.37,2013-09-09 17:38:00,
2013-09-09 18:43:00,55.5,52.0,30.22,NW,319,13.8,13.8,88,0.00,BKN,,0.01,0.0,WeatherDisplay:10.37,2013-09-09 17:43:00,
2013-09-09 18:48:00,55.6,51.5,30.22,NNW,347,11.5,11.5,86,0.00,BKN,,0.01,0.0,WeatherDisplay:10.37,2013-09-09 17:48:00,
2013-09-09 18:53:00,55.6,51.2,30.23,NNW,340,12.7,12.7,85,0.00,BKN,,0.01,0.0,WeatherDisplay:10.37,2013-09-09 17:53:00,
2013-09-09 18:58:00,55.6,51.2,30.23,NNW,329,8.1,8.1,85,0.00,BKN,,0.01,0.0,WeatherDisplay:10.37,2013-09-09 17:58:00,
2013-09-09 19:03:00,55.7,51.3,30.23,North,356,8.0,8.0,85,0.00,BKN,,0.01,0.0,WeatherDisplay:10.37,2013-09-09 18:03:00,
2013-09-09 19:08:00,55.7,50.9,30.23,NW,311,10.4,10.4,84,0.00,BKN,,0.01,0.0,WeatherDisplay:10.37,2013-09-09 18:08:00,
2013-09-09 19:13:00,55.4,51.0,30.23,WNW,296,8.0,8.0,85,0.00,BKN,,0.01,0.0,WeatherDisplay:10.37,2013-09-09 18:13:00,
2013-09-09 19:18:00,55.4,51.0,30.24,NW,309,10.4,10.4,85,0.00,BKN,,0.01,0.0,WeatherDisplay:10.37,2013-09-09 18:18:00,
2013-09-09 19:23:00,55.3,50.9,30.24,NNW,347,5.8,5.8,85,0.00,BKN,,0.01,0.0,WeatherDisplay:10.37,2013-09-09 18:23:00,
2013-09-09 19:28:00,55.2,51.1,30.24,NNW,339,6.0,6.7,86,0.00,BKN,,0.01,0.0,WeatherDisplay:10.37,2013-09-09 18:28:00,
2013-09-09 19:33:00,55.1,51.3,30.24,NW,312,11.5,11.5,87,0.00,BKN,,0.01,0.0,WeatherDisplay:10.37,2013-09-09 18:33:00,
2013-09-09 19:38:00,54.8,51.6,30.24,NNW,332,12.0,12.0,89,0.00,BKN,,0.01,0.0,WeatherDisplay:10.37,2013-09-09 18:38:00,
2013-09-09 19:43:00,54.1,51.5,30.25,NNW,332,9.2,9.2,91,0.00,BKN,,0.01,0.0,WeatherDisplay:10.37,2013-09-09 18:43:00,
2013-09-09 19:48:00,53.7,51.4,30.25,NW,315,6.9,6.9,92,0.00,BKN,,0.01,0.0,WeatherDisplay:10.37,2013-09-09 18:48:00,
2013-09-09 19:53:00,53.6,51.3,30.25,NW,321,8.1,8.1,92,0.00,BKN,,0.01,0.0,WeatherDisplay:10.37,2013-09-09 18:53:00,
2013-09-09 19:58:00,53.5,51.5,30.26,NNW,331,6.9,6.9,93,0.00,BKN,,0.01,0.0,WeatherDisplay:10.37,2013-09-09 18:58:00,
2013-09-09 20:03:00,53.4,51.4,30.26,NNW,335,8.1,8.1,93,0.00,BKN,,0.01,0.0,WeatherDisplay:10.37,2013-09-09 19:03:00,
2013-09-09 20:08:00,53.3,51.3,30.26,NNW,340,5.8,5.8,93,0.00,BKN,,0.01,0.0,WeatherDisplay:10.37,2013-09-09 19:08:00,
2013-09-09 20:13:00,53.1,51.1,30.26,WNW,301,5.0,5.0,93,0.00,BKN,,0.01,0.0,WeatherDisplay:10.37,2013-09-09 19:13:00,
2013-09-09 20:18:00,53.0,51.0,30.26,WNW,284,9.0,9.0,93,0.00,BKN,,0.01,0.0,WeatherDisplay:10.37,2013-09-09 19:18:00,
2013-09-09 20:23:00,53.0,51.0,30.27,NNW,342,5.0,5.0,93,0.00,BKN,,0.01,0.0,WeatherDisplay:10.37,2013-09-09 19:23:00,
2013-09-09 20:28:00,53.2,51.2,30.26,WNW,285,9.2,9.2,93,0.00,BKN,,0.01,0.0,WeatherDisplay:10.37,2013-09-09 19:28:00,
2013-09-09 20:33:00,53.3,51.3,30.27,WNW,291,9.2,9.2,93,0.00,BKN,,0.01,0.0,WeatherDisplay:10.37,2013-09-09 19:33:00,
2013-09-09 20:38:00,53.4,51.4,30.27,WNW,288,8.1,8.1,93,0.00,BKN,,0.01,0.0,WeatherDisplay:10.37,2013-09-09 19:38:00,
2013-09-09 20:43:00,53.4,51.4,30.27,WNW,296,5.8,5.8,93,0.00,BKN,,0.01,0.0,WeatherDisplay:10.37,2013-09-09 19:43:00,
2013-09-09 20:48:00,53.4,51.4,30.27,WNW,296,5.8,5.8,93,0.00,BKN,,0.01,0.0,WeatherDisplay:10.37,2013-09-09 19:48:00,
2013-09-09 20:53:00,53.4,51.4,30.28,NW,307,7.0,7.0,93,0.00,BKN,,0.01,0.0,WeatherDisplay:10.37,2013-09-09 19:53:00,
2013-09-09 20:58:00,53.3,51.3,30.28,WNW,294,5.8,5.8,93,0.00,BKN,,0.01,,WeatherDisplay:10.37,2013-09-09 19:58:00,
2013-09-09 21:03:00,53.3,51.3,30.28,WNW,291,7.0,7.0,93,0.00,BKN,,0.01,0.0,WeatherDisplay:10.37,2013-09-09 20:03:00,
2013-09-09 21:08:00,53.2,50.9,30.28,WNW,294,4.6,4.6,92,0.00,BKN,,0.01,0.0,WeatherDisplay:10.37,2013-09-09 20:08:00,
2013-09-09 21:13:00,53.1,50.8,30.28,WNW,288,3.5,3.5,92,0.00,BKN,,0.01,0.0,WeatherDisplay:10.37,2013-09-09 20:13:00,
2013-09-09 21:18:00,53.1,50.8,30.28,WNW,290,4.6,4.6,92,0.00,BKN,,0.01,0.0,WeatherDisplay:10.37,2013-09-09 20:18:00,
2013-09-09 21:23:00,53.0,50.7,30.29,WNW,301,5.8,5.8,92,0.00,BKN,,0.01,0.0,WeatherDisplay:10.37,2013-09-09 20:23:00,
2013-09-09 21:28:00,53.0,50.7,30.29,West,281,8.1,8.1,92,0.00,BKN,,0.01,0.0,WeatherDisplay:10.37,2013-09-09 20:28:00,
2013-09-09 21:33:00,52.9,50.6,30.29,WNW,297,10.4,10.4,92,0.00,BKN,,0.01,0.0,WeatherDisplay:10.37,2013-09-09 20:33:00,
2013-09-09 21:38:00,52.8,50.5,30.29,NW,309,6.0,6.0,92,0.00,BKN,,0.01,0.0,WeatherDisplay:10.37,2013-09-09 20:38:00,
2013-09-09 21:43:00,52.5,50.2,30.29,WNW,301,6.9,6.9,92,0.00,BKN,,0.01,0.0,WeatherDisplay:10.37,2013-09-09 20:43:00,
2013-09-09 21:48:00,52.4,50.1,30.30,WNW,301,4.6,4.6,92,0.00,BKN,,0.01,0.0,WeatherDisplay:10.37,2013-09-09 20:48:00,
2013-09-09 21:53:00,52.3,50.0,30.30,WNW,283,3.5,3.5,92,0.00,BKN,,0.01,0.0,WeatherDisplay:10.37,2013-09-09 20:53:00,
2013-09-09 21:58:00,52.2,49.9,30.30,WNW,293,4.0,4.0,92,0.00,BKN,,0.01,0.0,WeatherDisplay:10.37,2013-09-09 20:58:00,
2013-09-09 22:03:00,52.2,49.9,30.30,WNW,294,4.6,4.6,92,0.00,BKN,,0.01,0.0,WeatherDisplay:10.37,2013-09-09 21:03:00,
2013-09-09 22:08:00,52.3,50.0,30.30,West,266,5.0,5.0,92,0.00,BKN,,0.01,0.0,WeatherDisplay:10.37,2013-09-09 21:08:00,
2013-09-09 22:13:00,52.4,50.1,30.30,WNW,284,6.0,6.0,92,0.00,BKN,,0.01,0.0,WeatherDisplay:10.37,2013-09-09 21:13:00,
2013-09-09 22:18:00,52.3,50.0,30.30,West,275,5.8,5.8,92,0.00,BKN,,0.01,0.0,WeatherDisplay:10.37,2013-09-09 21:18:00,
2013-09-09 22:23:00,52.3,50.0,30.30,NNW,328,9.2,9.2,92,0.00,BKN,,0.01,0.0,WeatherDisplay:10.37,2013-09-09 21:23:00,
2013-09-09 22:28:00,52.2,49.9,30.30,WNW,297,9.2,9.2,92,0.00,BKN,,0.01,0.0,WeatherDisplay:10.37,2013-09-09 21:28:00,
2013-09-09 22:33:00,51.9,49.6,30.30,WNW,294,9.2,9.2,92,0.00,BKN,,0.01,0.0,WeatherDisplay:10.37,2013-09-09 21:33:00,
2013-09-09 22:38:00,51.8,49.8,30.29,NW,304,7.0,7.0,93,0.00,BKN,,0.01,0.0,WeatherDisplay:10.37,2013-09-09 21:38:00,
2013-09-09 22:43:00,51.8,49.8,30.30,WNW,293,9.2,9.2,93,0.00,BKN,,0.01,0.0,WeatherDisplay:10.37,2013-09-09 21:43:00,
2013-09-09 22:48:00,51.7,49.7,30.30,NW,323,6.9,6.9,93,0.00,BKN,,0.01,0.0,WeatherDisplay:10.37,2013-09-09 21:48:00,
2013-09-09 22:53:00,51.6,49.6,30.30,WNW,288,6.0,6.0,93,0.00,BKN,,0.01,0.0,WeatherDisplay:10.37,2013-09-09 21:53:00,
2013-09-09 22:58:00,51.5,49.5,30.30,WNW,293,8.1,8.1,93,0.00,BKN,,0.01,0.0,WeatherDisplay:10.37,2013-09-09 21:58:00,
2013-09-09 23:03:00,51.2,49.2,30.30,WNW,290,4.0,4.0,93,0.00,BKN,,0.01,0.0,WeatherDisplay:10.37,2013-09-09 22:03:00,
2013-09-09 23:08:00,51.0,49.0,30.30,WNW,293,3.5,3.5,93,0.00,BKN,,0.01,0.0,WeatherDisplay:10.37,2013-09-09 22:08:00,
2013-09-09 23:13:00,50.6,48.7,30.31,WNW,294,5.0,5.0,93,0.00,BKN,,0.01,0.0,WeatherDisplay:10.37,2013-09-09 22:13:00,
2013-09-09 23:18:00,50.5,48.8,30.30,NW,304,6.9,6.9,94,0.00,BKN,,0.01,0.0,WeatherDisplay:10.37,2013-09-09 22:18:00,
2013-09-09 23:23:00,50.7,49.0,30.31,WNW,295,4.0,4.0,94,0.00,BKN,,0.01,0.0,WeatherDisplay:10.37,2013-09-09 22:23:00,
2013-09-09 23:28:00,50.9,48.9,30.31,WNW,290,6.9,6.9,93,0.00,BKN,,0.01,0.0,WeatherDisplay:10.37,2013-09-09 22:28:00,
2013-09-09 23:33:00,51.1,48.9,30.31,NW,319,6.9,6.9,92,0.00,BKN,,0.01,0.0,WeatherDisplay:10.37,2013-09-09 22:33:00,
2013-09-09 23:38:00,51.3,48.8,30.31,NW,311,3.5,3.5,91,0.00,BKN,,0.01,0.0,WeatherDisplay:10.37,2013-09-09 22:38:00,
2013-09-09 23:43:00,51.4,48.6,30.31,NW,311,2.3,2.3,90,0.00,BKN,,0.01,0.0,WeatherDisplay:10.37,2013-09-09 22:43:00,
2013-09-09 23:48:00,51.4,48.6,30.31,NW,322,5.0,5.0,90,0.00,BKN,,0.01,0.0,WeatherDisplay:10.37,2013-09-09 22:48:00,
2013-09-09 23:53:00,51.5,48.7,30.31,NW,313,3.0,3.0,90,0.00,BKN,,0.01,0.0,WeatherDisplay:10.37,2013-09-09 22:53:00,
2013-09-09 23:58:00,51.6,48.8,30.31,NW,318,5.0,5.0,90,0.00,BKN,,0.01,0.0,WeatherDisplay:10.37,2013-09-09 22:58:00,